| time (UTC) | temp F | wind direction | speed MPH | gust MPH | rain 1hr in | rain 24hr in | rain mn in | humidity % | barometer mb |
| 20260502220004 | 52 | 169 | 0.0 | 0.0 | 0.04 | 0.17 | 0.17 | 88 | 1011.6 |
| 20260502214519 | 52 | 169 | 0.0 | 0.0 | 0.04 | 0.15 | 0.15 | 88 | 1011.6 |
| 20260502213018 | 52 | 169 | 0.0 | 0.0 | 0.04 | 0.14 | 0.14 | 88 | 1011.6 |
| 20260502211515 | 52 | 169 | 0.0 | 0.0 | 0.04 | 0.13 | 0.13 | 88 | 1011.7 |
| 20260502210013 | 52 | 169 | 0.0 | 0.0 | 0.04 | 0.12 | 0.12 | 88 | 1011.8 |
| 20260502204508 | 53 | 169 | 0.0 | 0.0 | 0.04 | 0.11 | 0.11 | 88 | 1011.9 |
| 20260502203022 | 53 | 169 | 0.0 | 0.0 | 0.04 | 0.10 | 0.10 | 88 | 1012.1 |
| 20260502201525 | 53 | 169 | 0.0 | 0.0 | 0.03 | 0.08 | 0.08 | 88 | 1012.2 |
| 20260502200034 | 53 | 169 | 0.0 | 0.0 | 0.03 | 0.07 | 0.07 | 87 | 1012.3 |
| 20260502194515 | 54 | 169 | 0.0 | 0.0 | 0.03 | 0.06 | 0.06 | 87 | 1012.3 |
| 20260502193021 | 54 | 169 | 0.0 | 0.0 | 0.03 | 0.05 | 0.05 | 87 | 1012.4 |
| 20260502191510 | 54 | 169 | 0.0 | 0.0 | 0.03 | 0.04 | 0.04 | 86 | 1012.5 |
| 20260502190025 | 55 | 169 | 0.0 | 0.0 | 0.03 | 0.03 | 0.03 | 86 | 1012.6 |
| 20260502184525 | 55 | 169 | 0.0 | 1.0 | 0.02 | 0.03 | 0.03 | 85 | 1012.7 |
| 20260502183022 | 56 | 165 | 0.0 | 2.0 | 0.00 | 0.01 | 0.01 | 83 | 1012.8 |
| 20260502181518 | 57 | 165 | 1.0 | 3.0 | 0.00 | 0.00 | 0.00 | 78 | 1012.7 |
| 20260502163020 | 60 | 92 | 3.0 | 5.0 | 0.00 | 0.00 | 0.00 | 63 | 1012.9 |
| 20260502161512 | 61 | 100 | 1.0 | 5.0 | 0.00 | 0.00 | 0.00 | 63 | 1013.0 |
| 20260502151522 | 61 | 79 | 0.0 | 2.0 | 0.00 | 0.01 | 0.00 | 63 | 1013.8 |
| 20260502123010 | 62 | 224 | 1.0 | 8.0 | 0.00 | 0.06 | 0.00 | 58 | 1015.4 |
| 20260502113019 | 59 | 217 | 1.0 | 8.0 | 0.00 | 0.06 | 0.00 | 66 | 1016.3 |
| 20260502111518 | 59 | 240 | 3.0 | 8.0 | 0.00 | 0.06 | 0.00 | 65 | 1016.4 |
| 20260502110012 | 59 | 183 | 2.0 | 6.0 | 0.00 | 0.06 | 0.00 | 70 | 1016.4 |
| 20260502104511 | 57 | 306 | 0.0 | 3.0 | 0.00 | 0.06 | 0.00 | 71 | 1016.7 |
| 20260502103054 | 58 | 228 | 0.0 | 3.0 | 0.00 | 0.06 | 0.00 | 72 | 1016.7 |
| 20260502101533 | 58 | 320 | 0.0 | 2.0 | 0.00 | 0.06 | 0.00 | 75 | 1016.7 |
| 20260502091512 | 56 | 295 | 0.0 | 7.0 | 0.00 | 0.06 | 0.00 | 76 | 1017.5 |
| 20260502071529 | 52 | 233 | 0.0 | 1.0 | 0.00 | 0.05 | 0.00 | 87 | 1017.5 |
| 20260502070026 | 50 | 239 | 0.0 | 3.0 | 0.00 | 0.05 | 0.00 | 88 | 1017.6 |
| 20260502064525 | 49 | 219 | 1.0 | 2.0 | 0.00 | 0.05 | 0.00 | 88 | 1017.7 |
| 20260502063020 | 49 | 195 | 0.0 | 1.0 | 0.00 | 0.05 | 0.00 | 89 | 1017.6 |
| 20260502061518 | 48 | 214 | 0.0 | 0.0 | 0.00 | 0.05 | 0.00 | 89 | 1017.6 |
| 20260502060028 | 48 | 216 | 0.0 | 0.0 | 0.00 | 0.05 | 0.00 | 89 | 1017.6 |
| 20260502054541 | 48 | 216 | 0.0 | 1.0 | 0.00 | 0.05 | 0.00 | 89 | 1017.5 |
| 20260502053029 | 47 | 216 | 0.0 | 2.0 | 0.00 | 0.05 | 0.00 | 89 | 1017.4 |
| 20260502051503 | 47 | 216 | 0.0 | 2.0 | 0.00 | 0.05 | 0.00 | 89 | 1017.5 |
| 20260502050005 | 46 | 215 | 0.0 | 1.0 | 0.00 | 0.05 | 0.00 | 89 | 1017.4 |
| 20260502044505 | 46 | 216 | 0.0 | 2.0 | 0.00 | 0.05 | 0.00 | 89 | 1017.4 |
| 20260502043003 | 46 | 241 | 1.0 | 3.0 | 0.00 | 0.05 | 0.00 | 89 | 1017.3 |
| 20260502041511 | 46 | 223 | 0.0 | 3.0 | 0.00 | 0.05 | 0.00 | 89 | 1017.4 |
| 20260502040010 | 46 | 226 | 2.0 | 3.0 | 0.00 | 0.05 | 0.00 | 89 | 1017.5 |
| 20260502034510 | 45 | 225 | 0.0 | 2.0 | 0.00 | 0.05 | 0.00 | 89 | 1017.6 |
| 20260502033008 | 44 | 223 | 0.0 | 0.0 | 0.00 | 0.05 | 0.00 | 89 | 1017.7 |
| 20260502031504 | 44 | 223 | 0.0 | 0.0 | 0.00 | 0.05 | 0.00 | 89 | 1017.9 |
| 20260502030004 | 44 | 223 | 0.0 | 0.0 | 0.00 | 0.05 | 0.00 | 89 | 1018.0 |
| 20260502024516 | 45 | 222 | 0.0 | 2.0 | 0.00 | 0.05 | 0.00 | 89 | 1018.0 |
| 20260502023011 | 44 | 230 | 0.0 | 1.0 | 0.00 | 0.05 | 0.00 | 89 | 1018.1 |
| 20260502021510 | 44 | 221 | 0.0 | 0.0 | 0.00 | 0.05 | 0.00 | 89 | 1018.2 |
| 20260502020018 | 45 | 221 | 0.0 | 0.0 | 0.00 | 0.05 | 0.00 | 89 | 1018.3 |
| 20260502014506 | 45 | 221 | 0.0 | 1.0 | 0.00 | 0.05 | 0.00 | 89 | 1018.5 |
| 20260502013019 | 45 | 221 | 0.0 | 0.0 | 0.00 | 0.05 | 0.00 | 89 | 1018.7 |
| 20260502011516 | 45 | 221 | 0.0 | 1.0 | 0.00 | 0.05 | 0.00 | 89 | 1018.8 |
| 20260502010013 | 45 | 247 | 0.0 | 2.0 | 0.00 | 0.05 | 0.00 | 89 | 1019.0 |
| 20260502004512 | 45 | 232 | 0.0 | 1.0 | 0.00 | 0.05 | 0.00 | 89 | 1019.1 |
| 20260502003008 | 46 | 232 | 0.0 | 0.0 | 0.00 | 0.05 | 0.00 | 89 | 1019.3 |
| 20260502001507 | 46 | 236 | 0.0 | 2.0 | 0.00 | 0.05 | 0.00 | 89 | 1019.3 |
| 20260502000022 | 47 | 217 | 0.0 | 2.0 | 0.00 | 0.05 | 0.00 | 89 | 1019.4 |
| 20260501234522 | 46 | 217 | 0.0 | 0.0 | 0.00 | 0.05 | 0.00 | 89 | 1019.5 |
| 20260501233018 | 46 | 217 | 0.0 | 0.0 | 0.00 | 0.05 | 0.00 | 89 | 1019.6 |
| 20260501231515 | 47 | 217 | 0.0 | 3.0 | 0.00 | 0.05 | 0.00 | 89 | 1019.7 |
| 20260501230010 | 47 | 221 | 0.0 | 2.0 | 0.00 | 0.05 | 0.00 | 89 | 1019.6 |
| 20260501224508 | 48 | 217 | 0.0 | 3.0 | 0.00 | 0.05 | 0.05 | 89 | 1019.6 |
| 20260501223036 | 47 | 221 | 0.0 | 1.0 | 0.00 | 0.05 | 0.05 | 89 | 1019.5 |
| 20260501221530 | 48 | 278 | 0.0 | 0.0 | 0.00 | 0.05 | 0.05 | 89 | 1019.6 |